Home > Weather > Male > Past weeks

Flag for Maldives Past Weather in Male, Maldives — Yesterday and Last 2 Weeks

Now
84 °F

Partly cloudy.


Feels Like: 92 °F
Forecast: 81 / 85 °F
Wind: 9 mph from West

Location: Male Airport

Current Time: Jul 30, 2016 at 4:50:46 AM

Latest Report: Jul 30, 2016 at 4:00 AM


Visibility: N/A

Pressure: 29.80 "Hg

Humidity: 74%

Dew Point: 75 °F

Location of MaleLocation

Past Weather in Male — Graph

°F

Male Temperature Yesterday

Maximum temperature yesterday: 88 °F (at 12:00 PM)
Minimum temperature yesterday: 82 °F (at 5:00 AM)
Average temperature yesterday: 85 °F

High & Low Weather Summary for the Past Weeks

 TemperatureHumidityPressure
High88 °F (Jul 24, 10:00 AM)89% (Jul 15, 9:00 AM)29.89 "Hg (Jul 15, 9:00 AM)
Low79 °F (Jul 15, 9:00 AM)66% (Jul 22, 11:00 AM)29.74 "Hg (Jul 15, 4:00 PM)
Average84 °F75%29.81 "Hg
* Reported Jul 15 3:00 AM — Jul 30 3:00 AM, Male, Weather by CustomWeather, © 2016

Note: Actual official high and low records may vary slightly from our data, if they occured in-between our weather recording intervals... More about our weather records

Advertising

Male Weather History for the Previous 24 Hours

Scroll right to see more
 ConditionsComfort  
Time TempWeatherWind HumidityBarometerVisibility
3:00 AM
Sat, Jul 30
82 °FPartly cloudy.12 mph79%29.80 "HgN/A
2:00 AM82 °FPartly cloudy.10 mph84%29.83 "HgN/A
1:00 AM84 °FPassing clouds.9 mph74%29.83 "HgN/A
12:00 AM84 °FPassing clouds.9 mph74%29.86 "HgN/A
11:00 PM
Fri, Jul 29
84 °FPassing clouds.9 mph74%29.86 "HgN/A
10:00 PM84 °FPassing clouds.9 mph74%29.86 "HgN/A
9:00 PM84 °FPassing clouds.10 mph74%29.86 "HgN/A
8:00 PM84 °FPassing clouds.9 mph74%29.83 "HgN/A
7:00 PM84 °FPassing clouds.9 mph70%29.83 "HgN/A
6:00 PM84 °FPartly sunny.9 mph74%29.80 "HgN/A
5:00 PM86 °FBroken clouds.10 mph70%29.77 "HgN/A
4:00 PM86 °FBroken clouds.10 mph70%29.77 "HgN/A
3:00 PM86 °FBroken clouds.14 mph70%29.77 "HgN/A
2:00 PM86 °FScattered clouds.9 mph70%29.80 "HgN/A
1:00 PM88 °FPartly sunny.9 mph70%29.80 "HgN/A
12:00 PM88 °FPartly sunny.9 mph70%29.83 "HgN/A
11:00 AM86 °FPartly sunny.9 mph75%29.86 "HgN/A
10:00 AM86 °FBroken clouds.8 mph70%29.86 "HgN/A
9:00 AM86 °FPartly sunny.8 mph70%29.86 "HgN/A
8:00 AM84 °FPartly sunny.9 mph79%29.83 "HgN/A
7:00 AM84 °FPartly sunny.9 mph74%29.83 "HgN/A
6:00 AM84 °FPartly cloudy.8 mph74%29.83 "HgN/A
5:00 AM82 °FPassing clouds.13 mph79%29.80 "HgN/A
4:00 AM84 °FPassing clouds.10 mph74%29.80 "HgN/A
Weather by CustomWeather, © 2016

See weather overviewHow to use our weather pages